FW5198 Weather Reports


Display with metric or nautical units.
time (UTC)temp
F
wind
direction
speed
MPH
gust
MPH
rain 1hr
in
rain 24hr
in
rain mn
in
humidity
%
barometer
mb
20260507051540 51 0 0.0 0.0 0.00 0.58 0.00 98 1015.2
20260507050039 51 0 0.0 0.0 0.00 0.58 0.00 98 1015.3
20260507044539 51 0 0.0 1.0 0.00 0.58 0.58 98 1015.6
20260507043040 51 0 0.0 0.0 0.00 0.58 0.58 98 1015.5
20260507041539 51 0 0.0 1.0 0.00 0.58 0.58 98 1015.9
20260507040053 51 0 0.0 0.0 0.00 0.58 0.58 98 1015.5
20260507034540 51 0 0.0 0.0 0.01 0.58 0.58 98 1015.2
20260507033042 51 0 0.0 0.0 0.01 0.58 0.58 98 1015.6
20260507031538 51 0 0.0 0.0 0.01 0.58 0.58 97 1015.4
20260507030040 51 0 0.0 1.0 0.01 0.58 0.58 97 1015.2
20260507024542 51 0 0.0 1.0 0.00 0.58 0.58 97 1015.1
20260507023040 51 0 0.0 1.0 0.00 0.58 0.58 97 1014.6
20260507021541 52 0 0.0 1.0 0.00 0.58 0.58 97 1014.8
20260507020037 52 0 0.0 0.0 0.02 0.58 0.58 97 1014.9
20260507014552 52 0 0.0 1.0 0.02 0.58 0.58 96 1015.0
20260507013040 52 0 0.0 1.0 0.03 0.58 0.58 96 1015.3
20260507011541 52 0 0.0 1.0 0.03 0.58 0.58 95 1015.2
20260507010043 52 0 0.0 2.0 0.01 0.57 0.56 95 1015.7
20260507004539 53 93 0.0 3.0 0.01 0.57 0.56 95 1015.6
20260507003036 53 0 0.0 2.0 0.00 0.56 0.55 95 1014.5
20260507001547 53 102 0.0 1.0 0.00 0.56 0.55 96 1014.3
20260507000042 53 0 0.0 2.0 0.00 0.56 0.55 95 1013.4
20260506234545 54 0 0.0 1.0 0.00 0.58 0.55 95 1012.9
20260506233039 54 99 0.0 1.0 0.01 0.58 0.55 95 1013.2
20260506231544 54 0 0.0 1.0 0.02 0.58 0.55 95 1013.8
20260506230051 54 0 0.0 3.0 0.02 0.58 0.55 95 1014.4
20260506224545 55 0 0.0 0.0 0.02 0.58 0.55 95 1014.3
20260506223045 55 0 0.0 1.0 0.01 0.58 0.54 93 1014.9
20260506221535 55 103 0.0 1.0 0.00 0.57 0.52 92 1014.1
20260506220054 55 0 0.0 4.0 0.00 0.57 0.52 91 1014.3
20260506214539 55 60 0.0 1.0 0.00 0.61 0.52 92 1014.0
20260506213035 55 0 0.0 3.0 0.00 0.61 0.52 92 1014.5
20260506211537 56 89 0.0 2.0 0.00 0.61 0.52 91 1014.5
20260506210042 55 0 0.0 3.0 0.00 0.61 0.52 92 1014.0
20260506204541 55 101 0.0 2.0 0.00 0.61 0.52 94 1013.7
20260506203113 55 252 0.0 3.0 0.00 0.61 0.52 94 1014.2
20260506201538 55 0 0.0 1.0 0.00 0.61 0.52 94 1014.4
20260506200046 54 0 0.0 1.0 0.00 0.61 0.52 93 1014.3
20260506194537 55 105 1.0 6.0 0.00 0.61 0.52 91 1014.4
20260506193039 54 0 0.0 2.0 0.00 0.61 0.52 93 1014.0
20260506191539 54 0 1.0 5.0 0.00 0.61 0.52 94 1014.2
20260506190045 53 110 0.0 2.0 0.00 0.61 0.52 98 1013.2
20260506184553 52 0 0.0 6.0 0.00 0.61 0.52 97 1014.3
20260506183037 52 250 0.0 1.0 0.00 0.61 0.52 97 1013.8
20260506181539 52 0 0.0 2.0 0.00 0.61 0.52 97 1015.1
20260506180047 52 103 0.0 1.0 0.00 0.61 0.52 97 1014.7
20260506174544 52 103 0.0 2.0 0.00 0.61 0.52 96 1014.7
20260506173052 52 0 0.0 2.0 0.00 0.61 0.52 96 1014.4
20260506171540 52 115 0.0 2.0 0.00 0.61 0.52 97 1013.7
20260506170048 52 116 0.0 2.0 0.00 0.61 0.52 97 1013.6
20260506164548 52 120 0.0 4.0 0.00 0.61 0.52 98 1013.4
20260506163138 52 0 0.0 1.0 0.00 0.61 0.52 98 1013.6
20260506161542 52 108 0.0 4.0 0.00 0.61 0.52 98 1013.6
20260506160043 52 0 0.0 1.0 0.00 0.61 0.52 98 1013.8
20260506154547 52 85 0.0 5.0 0.00 0.61 0.52 98 1014.0
20260506153044 51 97 0.0 2.0 0.00 0.61 0.52 98 1014.0
20260506151545 51 0 0.0 4.0 0.00 0.61 0.52 98 1014.1
20260506150043 51 148 0.0 1.0 0.00 0.61 0.52 98 1013.8
20260506144545 51 0 0.0 3.0 0.00 0.61 0.52 98 1013.6
20260506143039 51 136 0.0 6.0 0.00 0.61 0.52 98 1013.1
20260506141539 51 0 0.0 1.0 0.00 0.61 0.52 98 1013.2
20260506140037 51 0 0.0 2.0 0.00 0.61 0.52 98 1012.6
20260506134539 51 95 0.0 2.0 0.00 0.61 0.52 98 1012.1
20260506133044 51 108 0.0 2.0 0.01 0.61 0.52 99 1011.7
20260506131539 51 239 0.0 3.0 0.08 0.61 0.52 98 1011.5
20260506130040 51 0 0.0 1.0 0.13 0.61 0.52 98 1011.4
20260506124537 51 0 0.0 3.0 0.15 0.61 0.52 98 1010.9
20260506123043 51 96 0.0 1.0 0.14 0.60 0.52 98 1011.5
20260506121550 51 0 0.0 1.0 0.07 0.52 0.45 98 1012.4
20260506120041 51 0 0.0 2.0 0.02 0.48 0.40 98 1012.1
20260506114541 51 67 0.0 2.0 0.00 0.46 0.38 98 1011.4
20260506113039 51 65 0.0 2.0 0.00 0.46 0.38 98 1011.0
20260506111538 51 0 0.0 1.0 0.00 0.46 0.38 98 1010.8
20260506110043 51 116 0.0 3.0 0.00 0.46 0.38 98 1010.8
20260506104539 51 0 0.0 1.0 0.00 0.46 0.38 97 1009.8
20260506103040 51 315 0.0 0.0 0.00 0.46 0.38 97 1010.0
20260506101547 52 315 0.0 1.0 0.00 0.46 0.38 97 1010.3
20260506100038 52 240 0.0 3.0 0.00 0.46 0.38 97 1010.1
20260506094543 52 0 0.0 2.0 0.00 0.46 0.38 97 1009.9
20260506093042 53 146 0.0 6.0 0.00 0.46 0.38 96 1009.6
20260506091539 53 79 0.0 4.0 0.01 0.46 0.38 96 1009.7
20260506090039 54 91 0.0 3.0 0.18 0.46 0.38 96 1010.0
20260506084544 55 243 0.0 4.0 0.22 0.46 0.38 94 1009.6
20260506083042 57 113 2.0 12.0 0.22 0.46 0.38 92 1009.4
20260506081542 64 120 2.0 9.0 0.37 0.45 0.37 95 1008.8
20260506073046 68 0 0.0 4.0 0.15 0.23 0.15 88 1006.9
20260506071544 70 82 7.0 18.0 0.00 0.08 0.00 80 1006.4
20260506061542 70 10 5.0 17.0 0.00 0.08 0.00 79 1006.5